Temp
-8 -8 -7 -6 -7 -8 -8 -7 -7 -7 -6 -6 -7 -6 -7 -6 -7 -6 -6 -6 -5 -4 -4 -4 -4 -4 -5 -5 -5 -5 -5 -5 -5 -5 -5 -5 -5 -5 -5 -5 -5 -5 -5 -5 -5 -5 -5 -6 -6
-8 -8 -8 -7 -7 -8 -8 -8 -7 -7 -6 -7 -7 -7 -7 -7 -7 -7 -7 -6 -6 -5 -4 -4 -4 -5 -5 -5 -5 -5 -6 -5 -5 -5 -5 -5 -5 -5 -5 -5 -5 -5 -5 -5 -5 -5 -5 -6 -6
-8 -8 -8 -7 -6 -7 -9 -8 -8 -7 -7 -6 -7 -7 -7 -7 -6 -7 -7 -7 -7 -6 -5 -5 -5 -5 -6 -6 -6 -6 -6 -6 -6 -6 -6 -5 -5 -5 -5 -5 -5 -5 -5 -5 -5 -5 -5 -5 -5
-8 -8 -8 -7 -6 -7 -9 -9 -9 -7 -7 -7 -7 -8 -6 -7 -8 -7 -7 -6 -6 -6 -5 -5 -5 -6 -6 -6 -6 -6 -6 -6 -6 -6 -6 -5 -5 -5 -5 -5 -5 -5 -5 -5 -5 -5 -6 -6 -6
-9 -8 -8 -7 -7 -7 -9 -9 -9 -8 -7 -7 -7 -7 -6 -7 -8 -8 -7 -7 -6 -6 -6 -6 -6 -6 -6 -6 -6 -6 -6 -6 -6 -6 -6 -6 -5 -5 -6 -6 -5 -5 -5 -5 -6 -6 -6 -6 -6
-9 -9 -8 -7 -7 -8 -9 -8 -9 -8 -7 -7 -7 -7 -7 -8 -8 -7 -7 -7 -7 -6 -6 -6 -6 -6 -6 -6 -6 -6 -6 -6 -6 -6 -6 -6 -6 -6 -6 -6 -6 -6 -6 -6 -6 -6 -6 -6 -6
-9 -9 -9 -8 -8 -8 -9 -9 -8 -8 -8 -7 -7 -7 -7 -8 -8 -8 -7 -7 -7 -7 -7 -7 -7 -7 -7 -7 -7 -7 -7 -7 -7 -7 -7 -6 -6 -6 -6 -6 -6 -6 -6 -6 -6 -6 -6 -6 -6
-9 -9 -9 -9 -8 -8 -9 -9 -8 -8 -8 -8 -8 -7 -7 -8 -8 -8 -8 -7 -7 -7 -7 -7 -7 -7 -7 -7 -7 -7 -7 -7 -7 -7 -7 -6 -6 -6 -7 -7 -7 -6 -7 -7 -7 -6 -6 -6 -6
-9 -9 -9 -9 -8 -8 -9 -9 -8 -8 -8 -8 -8 -8 -7 -7 -8 -8 -8 -7 -7 -7 -7 -7 -7 -8 -8 -8 -8 -8 -8 -7 -7 -7 -7 -6 -6 -6 -7 -7 -7 -7 -7 -7 -7 -6 -6 -6 -6
-9 -8 -8 -9 -9 -9 -9 -9 -8 -8 -9 -9 -8 -8 -7 -7 -7 -7 -8 -8 -8 -8 -7 -7 -6 -6 -7 -7 -8 -8 -8 -8 -7 -7 -7 -7 -7 -7 -7 -7 -7 -7 -7 -7 -7 -7 -6 -6 -6
-9 -8 -8 -9 -10 -9 -9 -9 -9 -8 -9 -9 -8 -8 -8 -8 -7 -6 -6 -7 -8 -8 -8 -8 -7 -7 -6 -6 -7 -8 -8 -8 -7 -7 -7 -7 -7 -7 -7 -7 -7 -7 -7 -7 -7 -7 -7 -7 -6
-9 -9 -9 -10 -10 -10 -10 -10 -9 -9 -9 -9 -9 -8 -8 -8 -8 -7 -6 -7 -8 -8 -7 -8 -8 -8 -7 -6 -5 -6 -7 -7 -6 -7 -7 -7 -7 -6 -7 -7 -7 -7 -7 -7 -7 -7 -7 -7 -7
-9 -9 -9 -10 -10 -10 -10 -10 -10 -9 -9 -9 -9 -9 -9 -8 -8 -8 -7 -7 -8 -7 -7 -7 -8 -8 -8 -8 -7 -6 -6 -7 -7 -7 -7 -7 -6 -7 -7 -7 -7 -7 -7 -7 -8 -8 -7 -7 -7
-10 -10 -10 -11 -10 -11 -10 -10 -10 -10 -9 -9 -9 -9 -9 -8 -8 -7 -7 -8 -7 -8 -7 -7 -8 -8 -8 -8 -8 -8 -7 -8 -7 -7 -7 -7 -7 -7 -7 -7 -7 -7 -7 -7 -8 -8 -7 -7 -8
-11 -11 -10 -10 -10 -9 -10 -11 -10 -10 -10 -10 -9 -9 -9 -9 -9 -8 -7 -7 -8 -8 -8 -8 -8 -8 -9 -8 -9 -8 -8 -8 -8 -9 -8 -7 -8 -7 -7 -7 -7 -7 -7 -8 -8 -8 -8 -8 -7
-11 -11 -10 -10 -10 -10 -9 -9 -10 -10 -10 -11 -10 -10 -10 -9 -9 -9 -8 -8 -8 -8 -9 -9 -8 -8 -8 -8 -9 -8 -8 -8 -7 -8 -8 -9 -8 -8 -8 -8 -8 -8 -8 -8 -8 -8 -8 -8 -8
-11 -10 -9 -11 -10 -10 -9 -9 -10 -9 -9 -10 -10 -10 -10 -9 -9 -9 -8 -8 -8 -9 -8 -8 -8 -7 -7 -8 -7 -8 -8 -8 -8 -8 -9 -7 -8 -7 -8 -8 -8 -7 -7 -8 -8 -8 -8 -8 -8
-10 -10 -10 -10 -10 -10 -9 -9 -10 -10 -10 -10 -10 -10 -10 -10 -10 -9 -8 -8 -8 -8 -8 -8 -7 -7 -6 -6 -7 -8 -7 -8 -7 -7 -8 -8 -9 -8 -8 -8 -8 -8 -8 -8 -8 -8 -9 -9 -9
-11 -11 -10 -10 -11 -11 -10 -9 -10 -10 -9 -10 -10 -10 -10 -10 -9 -9 -9 -9 -8 -8 -8 -8 -7 -7 -7 -6 -6 -6 -7 -7 -7 -8 -8 -8 -8 -8 -8 -8 -8 -8 -8 -8 -8 -8 -8 -9 -9
-11 -11 -11 -11 -12 -11 -11 -10 -9 -10 -10 -9 -9 -10 -10 -10 -9 -9 -9 -8 -8 -10 -9 -9 -9 -8 -8 -7 -8 -8 -7 -6 -7 -8 -8 -8 -8 -8 -8 -9 -9 -8 -8 -8 -8 -8 -9 -8 -9
-12 -11 -12 -12 -12 -12 -12 -11 -10 -9 -10 -10 -9 -10 -10 -9 -10 -10 -10 -9 -9 -9 -9 -10 -11 -9 -8 -8 -8 -7 -7 -7 -8 -7 -8 -8 -8 -8 -8 -8 -8 -9 -9 -9 -9 -9 -9 -9 -10
-11 -12 -12 -12 -13 -13 -12 -11 -10 -10 -9 -10 -10 -10 -10 -11 -10 -10 -9 -9 -9 -9 -10 -11 -11 -10 -9 -8 -8 -8 -8 -8 -8 -7 -8 -9 -8 -9 -8 -8 -9 -9 -9 -10 -10 -9 -9 -9 -10
-13 -13 -13 -13 -13 -14 -13 -13 -11 -11 -9 -9 -10 -11 -11 -11 -10 -9 -9 -9 -9 -9 -10 -11 -11 -12 -12 -10 -9 -9 -9 -8 -8 -8 -9 -10 -9 -9 -10 -9 -9 -10 -10 -10 -10 -10 -10 -10 -10
-15 -14 -15 -16 -16 -15 -13 -13 -11 -11 -10 -11 -11 -12 -12 -12 -11 -10 -10 -10 -10 -10 -10 -11 -11 -12 -12 -12 -11 -11 -9 -9 -8 -8 -9 -9 -10 -10 -10 -10 -10 -10 -10 -10 -10 -10 -10 -10 -10
-15 -17 -18 -18 -18 -11 -13 -15 -11 -12 -13 -12 -13 -13 -13 -13 -13 -12 -11 -11 -10 -11 -11 -11 -12 -11 -11 -11 -11 -12 -12 -13 -12 -11 -11 -11 -11 -11 -11 -11 -10 -10 -10 -10 -10 -11 -11 -11 -11
-17 -18 -18 -17 -17 -14 -16 -15 -12 -14 -14 -13 -13 -13 -13 -12 -12 -12 -11 -11 -11 -13 -13 -12 -12 -12 -12 -11 -12 -13 -13 -13 -13 -12 -12 -12 -12 -12 -11 -11 -11 -11 -11 -11 -11 -11 -11 -11 -11
-18 -18 -17 -18 -17 -17 -16 -15 -15 -15 -14 -13 -13 -13 -13 -12 -12 -12 -11 -12 -12 -13 -13 -13 -13 -13 -13 -13 -13 -13 -13 -12 -12 -12 -11 -11 -11 -11 -11 -11 -11 -11 -11 -11 -11 -11 -11 -11 -12
-18 -18 -18 -17 -17 -17 -16 -15 -15 -14 -14 -14 -13 -12 -12 -12 -12 -13 -12 -12 -13 -14 -14 -14 -14 -14 -13 -13 -12 -12 -12 -12 -12 -11 -12 -11 -11 -11 -11 -12 -11 -12 -12 -12 -12 -11 -12 -12 -13
-17 -17 -17 -17 -17 -16 -16 -15 -14 -14 -14 -14 -14 -14 -13 -14 -14 -14 -14 -14 -14 -14 -14 -13 -13 -13 -13 -12 -13 -13 -12 -12 -12 -12 -12 -12 -12 -12 -12 -12 -12 -12 -12 -12 -12 -12 -12 -11 -11
-17 -17 -17 -17 -17 -16 -17 -16 -15 -15 -15 -14 -14 -15 -15 -15 -15 -15 -14 -14 -14 -13 -13 -13 -13 -14 -14 -13 -13 -13 -13 -13 -13 -13 -13 -12 -12 -12 -12 -12 -12 -12 -12 -12 -12 -12 -12 -12 -12
Height
5865 5869 5875 5880 5887 5886 5885 5889 5886 5891 5891 5889 5896 5899 5901 5903 5905 5908 5910 5914 5915 5916 5916 5915 5916 5915 5916 5916 5917 5919 5920 5920 5921 5921 5923 5923 5922 5921 5920 5919 5917 5916 5916 5915 5914 5912 5911 5908 5906
5861 5866 5870 5875 5882 5884 5883 5884 5883 5890 5890 5888 5895 5896 5901 5903 5906 5906 5910 5913 5915 5917 5917 5916 5916 5917 5917 5917 5919 5920 5921 5921 5922 5922 5922 5922 5921 5920 5919 5918 5917 5916 5915 5914 5913 5912 5910 5908 5905
5854 5861 5866 5869 5876 5882 5882 5883 5880 5886 5888 5888 5894 5897 5898 5900 5902 5905 5908 5911 5914 5917 5919 5917 5916 5917 5918 5919 5921 5922 5922 5923 5922 5922 5922 5922 5922 5920 5919 5918 5916 5915 5914 5913 5911 5910 5908 5906 5904
5847 5854 5861 5864 5873 5879 5882 5881 5879 5884 5886 5889 5890 5893 5895 5895 5898 5902 5906 5910 5912 5915 5918 5918 5917 5917 5918 5918 5921 5922 5922 5923 5923 5923 5923 5923 5922 5921 5919 5917 5916 5915 5913 5912 5910 5908 5906 5904 5902
5839 5846 5853 5862 5869 5875 5878 5876 5878 5877 5883 5885 5887 5890 5893 5894 5895 5902 5906 5908 5911 5911 5914 5916 5916 5916 5918 5918 5920 5922 5922 5922 5922 5922 5922 5922 5922 5921 5919 5918 5917 5915 5913 5911 5909 5907 5905 5903 5900
5829 5836 5846 5858 5866 5871 5873 5868 5874 5874 5878 5882 5883 5887 5890 5891 5896 5900 5903 5906 5907 5909 5911 5913 5914 5915 5916 5918 5920 5921 5921 5921 5922 5921 5920 5919 5919 5919 5919 5917 5917 5916 5913 5911 5909 5907 5904 5901 5898
5821 5829 5841 5855 5863 5866 5865 5865 5868 5872 5874 5875 5881 5885 5888 5889 5893 5897 5902 5903 5905 5907 5909 5911 5913 5913 5915 5916 5918 5920 5920 5920 5920 5920 5919 5918 5918 5918 5917 5917 5915 5913 5911 5909 5907 5905 5902 5899 5895
5814 5822 5834 5848 5856 5863 5858 5861 5864 5871 5870 5871 5876 5882 5885 5885 5889 5893 5897 5901 5903 5905 5907 5908 5909 5910 5913 5914 5915 5917 5918 5919 5919 5919 5918 5917 5916 5916 5915 5915 5913 5911 5909 5907 5905 5902 5900 5897 5894
5804 5812 5826 5842 5849 5856 5854 5858 5860 5866 5867 5868 5872 5876 5882 5884 5887 5890 5894 5898 5901 5903 5904 5905 5906 5907 5908 5910 5912 5914 5914 5915 5915 5916 5915 5915 5914 5913 5912 5912 5911 5908 5906 5904 5901 5899 5896 5893 5891
5795 5806 5823 5834 5842 5849 5849 5854 5855 5861 5862 5863 5865 5871 5879 5882 5884 5887 5890 5894 5896 5899 5902 5904 5905 5904 5904 5905 5906 5908 5909 5911 5911 5911 5911 5910 5910 5909 5908 5908 5907 5905 5903 5901 5898 5896 5893 5890 5887
5791 5802 5817 5826 5829 5840 5843 5849 5851 5852 5857 5857 5861 5866 5873 5878 5880 5883 5885 5887 5888 5893 5897 5898 5899 5900 5901 5902 5903 5904 5905 5906 5907 5906 5907 5907 5906 5906 5905 5904 5903 5901 5899 5896 5894 5891 5889 5886 5883
5784 5795 5807 5815 5820 5828 5836 5842 5844 5846 5850 5854 5854 5861 5869 5874 5877 5879 5881 5885 5883 5890 5890 5893 5895 5898 5900 5904 5904 5903 5902 5901 5903 5902 5903 5904 5903 5901 5901 5900 5899 5896 5895 5893 5889 5887 5884 5881 5878
5775 5787 5797 5806 5812 5821 5828 5834 5840 5842 5847 5850 5851 5855 5861 5867 5871 5875 5880 5882 5883 5883 5883 5888 5891 5897 5901 5903 5905 5904 5903 5898 5897 5897 5898 5899 5899 5897 5897 5896 5894 5892 5890 5888 5885 5881 5878 5875 5872
5767 5778 5788 5798 5806 5813 5823 5828 5834 5839 5841 5844 5848 5850 5853 5858 5866 5871 5875 5879 5881 5881 5885 5891 5892 5897 5897 5899 5900 5900 5898 5897 5894 5894 5894 5895 5895 5896 5894 5892 5889 5886 5884 5882 5879 5875 5873 5870 5867
5758 5769 5781 5793 5800 5807 5814 5821 5830 5833 5835 5837 5841 5846 5846 5850 5857 5863 5869 5875 5877 5881 5881 5887 5892 5893 5895 5897 5894 5891 5891 5890 5889 5889 5891 5892 5892 5890 5888 5885 5882 5879 5877 5875 5873 5869 5866 5863 5860
5748 5761 5776 5789 5794 5798 5805 5819 5826 5827 5831 5832 5835 5839 5842 5845 5851 5857 5861 5863 5866 5872 5877 5879 5884 5889 5887 5889 5885 5882 5879 5890 5886 5884 5884 5884 5882 5880 5882 5879 5876 5872 5870 5869 5866 5862 5859 5857 5854
5744 5759 5770 5779 5786 5788 5798 5810 5816 5820 5826 5827 5828 5829 5835 5839 5845 5852 5856 5856 5858 5863 5869 5875 5878 5883 5884 5883 5882 5881 5882 5885 5882 5880 5877 5877 5877 5877 5875 5873 5870 5866 5864 5862 5859 5856 5854 5850 5846
5744 5755 5763 5775 5779 5782 5790 5799 5805 5811 5817 5822 5823 5826 5825 5830 5835 5842 5848 5852 5852 5854 5858 5868 5872 5874 5876 5875 5873 5873 5873 5875 5871 5871 5872 5870 5869 5868 5868 5865 5862 5859 5856 5853 5850 5848 5844 5842 5838
5737 5745 5756 5766 5770 5775 5781 5787 5796 5802 5810 5817 5819 5821 5825 5824 5829 5834 5838 5843 5846 5848 5848 5855 5866 5866 5865 5863 5863 5864 5865 5867 5863 5864 5863 5861 5862 5860 5858 5855 5850 5847 5845 5843 5839 5836 5834 5833 5830
5731 5739 5749 5759 5762 5767 5772 5778 5786 5796 5803 5809 5812 5816 5819 5818 5821 5826 5830 5834 5837 5838 5839 5840 5853 5854 5855 5854 5853 5851 5853 5854 5855 5855 5854 5853 5852 5849 5845 5844 5839 5836 5835 5833 5830 5827 5826 5824 5821
5727 5734 5742 5752 5755 5757 5763 5769 5777 5786 5793 5800 5805 5809 5813 5815 5814 5816 5821 5826 5829 5830 5831 5831 5836 5845 5845 5845 5843 5843 5843 5842 5843 5844 5843 5839 5836 5836 5834 5831 5829 5825 5823 5823 5821 5818 5816 5815 5812
5719 5726 5733 5741 5746 5750 5755 5760 5769 5775 5783 5792 5800 5804 5806 5807 5807 5808 5813 5816 5820 5822 5822 5823 5822 5828 5837 5837 5837 5835 5834 5833 5831 5830 5829 5826 5824 5822 5820 5818 5817 5816 5813 5812 5810 5807 5806 5805 5803
5713 5717 5723 5730 5736 5740 5745 5750 5761 5767 5774 5786 5790 5794 5795 5798 5802 5803 5805 5809 5810 5813 5815 5815 5815 5814 5814 5821 5825 5826 5824 5822 5820 5819 5818 5816 5815 5811 5809 5808 5805 5805 5805 5802 5799 5796 5796 5794 5793
5706 5710 5716 5722 5726 5729 5739 5742 5748 5761 5770 5774 5779 5785 5788 5789 5792 5795 5796 5798 5800 5803 5805 5808 5809 5808 5806 5804 5807 5810 5813 5812 5810 5808 5808 5806 5805 5801 5800 5798 5796 5795 5793 5790 5788 5786 5784 5782 5780
5697 5702 5709 5716 5719 5728 5733 5733 5743 5756 5759 5766 5772 5776 5778 5781 5785 5788 5791 5791 5791 5792 5796 5797 5797 5798 5798 5798 5795 5793 5794 5795 5795 5795 5793 5791 5790 5789 5788 5786 5784 5783 5781 5779 5777 5774 5773 5771 5768
5692 5698 5703 5709 5714 5720 5729 5727 5740 5748 5751 5754 5761 5764 5767 5773 5779 5782 5785 5784 5785 5786 5787 5788 5790 5789 5789 5788 5786 5785 5785 5785 5783 5781 5780 5779 5778 5778 5775 5775 5773 5770 5770 5767 5764 5761 5759 5755 5753
5695 5696 5707 5708 5718 5718 5721 5730 5736 5739 5744 5750 5754 5756 5760 5766 5771 5775 5776 5777 5779 5782 5782 5783 5783 5783 5782 5780 5779 5777 5776 5776 5775 5773 5771 5768 5767 5764 5763 5761 5760 5757 5752 5749 5747 5746 5744 5741 5737
5696 5704 5706 5707 5712 5715 5720 5726 5732 5737 5740 5746 5750 5753 5757 5761 5765 5768 5770 5771 5774 5777 5778 5778 5778 5776 5774 5773 5772 5772 5770 5768 5765 5764 5762 5760 5757 5754 5750 5747 5744 5741 5737 5734 5732 5729 5725 5723 5720
5694 5697 5703 5708 5710 5714 5719 5726 5726 5729 5735 5741 5745 5748 5751 5755 5758 5762 5765 5768 5771 5772 5773 5772 5771 5769 5767 5766 5764 5761 5759 5758 5756 5755 5752 5749 5744 5740 5736 5732 5729 5725 5722 5716 5713 5709 5706 5705 5703
5693 5698 5702 5705 5708 5712 5715 5719 5721 5725 5729 5732 5737 5743 5747 5748 5752 5757 5761 5763 5765 5767 5767 5767 5765 5763 5761 5758 5755 5754 5753 5752 5748 5745 5740 5736 5731 5728 5725 5721 5717 5713 5708 5703 5699 5695 5691 5688 5684
Wind_Speed
41 40 38 37 37 33 31 22 23 10 8 11 21 23 22 18 15 12 5 1 3 3 2 2 4 7 8 9 9 9 8 8 7 6 6 6 6 7 7 10 12 13 14 14 14 15 15 15 17
45 42 42 40 41 33 30 21 21 16 12 7 14 23 22 13 8 12 5 1 5 6 4 4 5 6 8 9 9 8 7 5 5 5 4 4 5 6 7 11 12 12 12 13 15 16 16 17 19
47 45 45 45 43 38 30 23 20 18 15 12 8 10 15 16 4 4 3 6 7 8 7 4 7 8 8 7 6 6 5 4 4 3 3 4 6 7 9 10 11 12 12 14 16 18 20 20 21
50 48 48 48 43 41 31 31 19 22 19 20 10 11 11 10 5 4 1 5 8 7 8 5 9 8 5 5 3 3 1 1 1 2 4 7 9 10 10 10 12 13 14 16 18 20 22 23 23
52 51 50 47 45 43 38 34 27 30 24 21 20 17 17 13 7 7 8 10 14 10 11 11 10 5 2 2 2 4 2 2 3 4 5 8 10 12 12 13 14 14 16 17 19 22 24 25 26
62 53 53 48 45 44 43 41 33 32 36 32 22 23 18 16 13 13 10 20 18 15 13 13 12 10 7 6 3 5 7 6 7 7 7 8 10 12 13 13 16 18 19 20 22 24 26 27 28
62 60 52 45 44 46 50 48 42 33 34 38 31 23 21 18 17 20 16 21 19 17 13 12 8 6 5 5 6 6 5 7 8 10 10 11 12 14 15 16 16 18 20 22 24 26 28 28 27
61 60 57 47 46 46 51 51 44 40 36 36 34 24 23 24 22 23 22 20 24 22 20 16 13 10 8 5 6 9 11 12 13 14 14 15 16 17 17 18 18 19 21 23 26 27 29 30 29
62 63 58 51 47 48 49 52 56 44 41 39 34 31 30 23 21 24 26 26 26 26 24 23 22 17 15 15 15 15 15 16 17 18 18 19 20 19 19 21 21 21 23 26 27 28 30 31 31
64 63 56 55 50 48 49 50 58 54 42 43 42 34 33 31 27 23 26 26 25 27 29 29 28 28 24 23 21 20 18 18 19 21 22 22 23 22 22 22 23 24 26 27 29 31 33 32 32
60 62 57 54 56 52 49 49 53 56 52 45 47 41 35 33 34 32 29 34 34 27 26 29 33 34 33 30 27 25 20 22 24 24 25 24 24 26 27 27 27 27 28 29 31 32 33 34 34
60 57 55 59 58 60 53 49 53 56 54 51 46 42 40 36 35 35 36 29 24 31 28 34 34 36 37 35 35 33 28 24 29 31 27 27 27 28 29 30 30 32 32 34 34 34 35 35 35
61 55 53 55 61 59 61 54 50 52 56 52 51 52 47 40 36 37 34 29 26 20 24 36 35 38 37 38 42 46 38 30 32 33 30 32 32 30 28 30 32 34 34 36 37 36 35 34 33
61 57 52 50 57 63 60 61 52 48 53 57 59 48 54 55 44 39 33 29 38 34 31 29 27 30 34 37 47 43 40 37 38 35 34 36 36 31 31 34 36 38 40 40 39 37 36 33 36
59 57 55 50 54 57 62 64 59 51 50 53 58 53 49 46 43 43 42 40 40 38 41 39 40 36 33 32 51 58 49 37 30 26 33 37 31 33 36 37 40 42 43 44 42 40 36 35 34
58 56 54 51 51 55 61 61 57 63 53 52 55 58 52 50 43 40 42 45 42 39 30 28 25 24 31 34 40 37 41 41 43 35 39 34 33 37 44 42 43 44 44 42 43 41 38 38 34
57 57 58 52 54 56 58 59 64 63 64 60 57 57 59 58 53 46 40 42 37 37 34 30 30 31 34 33 39 26 30 36 34 36 38 40 33 43 48 49 44 46 47 46 43 42 40 34 37
55 54 55 52 55 57 57 57 60 65 65 68 65 62 62 60 56 54 56 46 43 49 52 46 41 43 39 35 32 27 23 30 35 37 40 42 51 46 50 51 48 45 46 46 44 40 37 35 40
52 53 52 51 54 56 57 57 56 60 61 65 68 69 66 65 66 61 57 54 57 59 63 60 52 46 39 36 35 32 31 34 29 39 45 49 53 53 52 52 51 50 50 48 45 40 40 42 40
48 48 49 49 50 56 57 58 57 55 55 58 65 66 68 68 66 63 62 60 61 64 62 59 47 42 36 30 31 36 37 38 37 39 41 47 51 49 50 51 52 53 51 45 45 46 44 40 35
43 45 45 46 50 54 56 58 57 55 56 56 58 58 60 63 63 64 63 63 61 60 57 55 44 31 35 34 35 35 36 38 40 39 43 47 46 48 52 54 49 49 45 44 44 44 43 40 35
42 46 47 48 50 55 57 58 57 57 56 51 52 55 58 59 60 62 62 62 62 58 55 54 53 48 32 33 32 32 37 37 39 41 41 40 46 53 50 47 46 44 43 43 44 43 44 43 44
38 43 48 48 51 53 57 60 58 57 56 51 50 52 51 53 55 56 57 56 55 55 54 55 59 61 56 52 49 44 45 46 46 45 45 44 45 44 45 47 48 44 44 46 45 44 47 46 46
32 39 38 38 41 53 56 60 61 57 55 51 45 45 45 47 51 52 52 47 43 42 46 49 55 56 57 50 48 45 50 51 47 44 43 44 41 45 46 46 45 47 46 45 46 48 50 49 48
34 38 38 36 38 54 54 54 59 54 46 39 41 35 34 38 42 33 25 26 33 35 38 41 46 49 46 45 43 38 37 36 35 36 37 37 38 40 44 45 45 48 51 53 55 52 53 48 53
39 40 41 38 42 45 28 41 46 37 40 40 41 44 44 41 34 35 33 26 30 37 45 47 45 43 38 35 35 36 38 41 42 43 45 46 46 47 48 51 53 54 55 55 56 57 56 54 56
33 38 28 30 26 27 31 31 33 32 33 33 39 50 53 42 32 31 36 34 38 41 42 36 34 37 40 41 41 42 43 45 46 49 50 51 51 51 53 53 55 57 57 57 58 59 58 58 57
25 28 27 30 25 17 20 19 27 33 23 23 27 32 33 35 34 31 29 31 32 34 34 32 33 37 42 41 42 44 45 47 49 50 50 51 52 53 53 53 56 57 58 57 58 61 61 62 61
24 30 30 22 21 18 18 24 28 31 32 23 30 34 31 25 25 24 23 27 30 32 32 32 30 32 37 39 42 43 45 47 46 45 46 46 48 50 52 55 57 59 62 63 66 66 67 67 67
26 25 26 22 25 21 19 26 36 32 33 33 30 37 30 25 23 21 22 26 27 25 22 23 26 27 31 35 37 39 38 38 40 44 47 50 52 55 56 59 63 65 67 69 71 72 73 73 74
Wind_Direction
212 203 201 198 190 193 202 204 228 205 198 218 202 203 187 161 161 155 143 284 266 284 285 139 114 108 106 106 103 97 89 87 87 83 70 48 33 28 31 12 5 5 2 1 2 2 358 357 350
216 208 202 200 192 195 210 205 226 182 207 156 182 158 159 158 138 129 88 348 307 306 281 156 123 115 111 110 112 110 95 90 97 95 82 37 25 23 9 359 2 10 7 4 359 355 351 350 347
213 214 206 201 195 190 212 199 224 216 210 182 191 195 166 174 109 104 349 324 284 290 273 172 145 133 124 122 130 120 92 107 113 94 64 22 352 357 0 0 5 8 7 2 355 349 346 345 343
216 212 216 203 195 195 195 216 219 223 227 232 198 180 151 169 135 135 250 285 207 245 245 195 165 143 138 138 153 162 108 160 284 6 4 2 351 351 354 355 359 2 0 357 350 344 340 339 337
213 213 213 209 197 195 195 207 212 226 226 214 190 199 187 173 160 178 187 203 212 211 215 207 194 188 209 208 206 218 276 302 262 286 323 335 337 340 338 342 345 351 353 350 343 340 337 334 333
213 216 213 210 200 197 201 209 206 219 226 217 192 207 202 180 202 199 191 200 202 208 213 212 207 215 224 235 251 252 255 264 266 272 300 313 319 324 325 330 338 341 342 339 340 339 335 332 329
219 213 215 206 204 201 207 215 207 212 223 233 220 208 201 170 221 209 209 206 206 217 214 217 215 214 220 226 254 262 275 280 278 283 294 302 312 314 314 321 329 333 334 336 334 331 330 327 324
215 219 212 204 202 206 213 215 215 211 222 228 220 213 202 202 203 213 210 216 223 228 220 219 222 225 237 241 253 267 282 293 299 295 292 295 300 305 306 310 319 323 326 328 328 328 327 325 322
217 216 213 205 202 204 215 220 215 210 216 222 217 218 214 203 218 221 212 218 232 238 237 229 231 236 242 252 258 270 277 285 291 295 293 290 293 300 301 305 311 314 317 324 326 325 324 323 321
217 216 214 208 206 203 215 219 223 217 218 225 222 221 223 226 217 223 217 223 231 241 247 252 247 240 237 239 249 258 269 282 285 288 289 288 290 296 297 300 303 308 315 320 322 322 323 322 317
217 214 212 206 210 207 214 217 225 228 225 229 231 228 221 232 234 231 225 222 223 228 240 246 247 249 246 244 244 251 262 272 278 279 282 288 292 295 295 299 304 307 310 316 318 318 320 318 313
218 215 215 208 210 205 212 218 221 229 233 231 232 234 229 229 236 237 235 223 236 237 230 236 252 259 260 266 264 257 258 267 279 277 284 288 287 287 292 300 305 307 309 315 317 318 317 314 312
218 215 215 215 210 211 209 214 222 226 231 236 238 239 236 236 240 245 251 239 218 227 231 246 237 250 269 277 277 274 267 266 270 277 282 285 285 284 292 299 302 303 307 313 315 313 312 311 308
218 217 216 213 216 213 216 216 218 224 230 233 236 244 245 242 242 239 236 231 230 251 264 262 262 278 291 281 275 273 271 275 278 285 283 284 285 294 302 304 305 305 307 309 310 308 308 309 305
219 220 217 212 217 218 214 224 217 219 228 237 237 236 243 241 239 244 246 246 247 251 258 266 272 275 298 284 266 276 270 265 274 295 287 285 294 308 304 301 301 302 305 310 312 309 307 303 301
218 218 217 215 217 217 217 218 225 226 225 237 239 240 240 244 244 247 255 263 268 267 263 262 269 280 292 291 284 297 249 262 275 271 281 275 295 303 299 298 298 298 304 306 307 305 304 305 297
217 217 216 213 217 221 219 216 217 223 227 231 239 246 247 249 250 250 253 262 258 257 261 266 275 282 273 280 278 281 293 272 282 275 272 267 277 290 293 294 295 298 303 303 304 302 298 296 295
217 218 218 216 219 223 224 218 218 221 224 228 235 240 247 250 254 255 256 255 256 270 276 277 275 279 275 276 277 276 282 287 278 278 268 262 277 289 289 291 293 297 300 297 296 294 296 291 291
215 218 217 216 220 225 226 224 221 224 223 226 232 240 245 250 252 256 262 261 267 269 272 276 276 277 278 275 273 264 271 277 287 276 268 267 275 283 284 287 290 291 295 295 294 292 290 291 289
215 218 217 215 219 225 229 230 226 223 225 225 231 235 241 247 252 254 258 262 267 269 271 277 279 279 280 278 276 275 273 276 276 278 275 266 270 277 280 286 291 291 293 289 288 289 289 285 282
214 217 218 216 217 224 229 230 231 227 224 226 229 236 242 245 250 253 258 260 263 269 272 276 274 270 274 275 280 281 281 281 283 279 278 282 283 285 287 286 289 284 283 283 283 284 286 281 280
215 217 218 216 217 221 228 234 232 234 230 225 231 236 239 243 247 251 255 258 260 264 267 271 273 275 272 269 270 279 288 284 286 284 284 284 288 288 286 285 283 280 279 280 280 282 283 283 287
210 213 215 216 220 220 223 230 231 236 238 234 232 236 242 245 245 249 253 255 259 261 263 266 270 276 283 279 278 284 284 288 285 285 286 286 287 285 284 286 282 280 280 280 276 281 284 281 284
201 209 208 212 220 223 225 229 231 232 237 242 245 242 242 249 255 256 259 262 263 265 263 263 264 269 270 275 277 277 279 276 276 279 281 278 278 278 279 278 278 278 278 277 280 280 280 283 280
201 193 193 203 212 223 225 230 233 235 239 240 236 233 238 242 244 247 261 259 258 255 257 257 259 262 267 270 273 272 271 278 283 284 283 282 280 278 277 275 276 277 277 278 278 278 280 275 279
186 189 193 201 217 226 214 230 233 242 236 234 230 228 233 238 244 249 248 248 255 255 260 259 261 261 262 263 264 268 272 273 273 274 276 276 275 275 275 277 278 277 278 278 281 280 278 278 277
184 194 193 215 216 214 217 214 208 207 203 208 220 229 233 235 240 230 231 228 235 241 247 248 247 252 254 256 261 263 265 269 271 272 275 278 281 282 281 281 281 283 282 282 282 281 279 277 276
186 196 208 213 226 229 222 205 206 202 194 210 212 221 225 226 228 225 221 223 230 235 240 245 250 255 255 259 265 269 269 268 270 272 273 276 278 280 282 282 281 281 280 279 277 277 277 278 278
194 196 205 235 254 229 236 215 209 208 219 224 223 225 218 211 215 219 225 230 231 237 245 252 261 267 270 271 271 272 272 273 276 277 279 280 281 281 282 283 284 284 283 284 284 283 283 283 282
202 216 216 227 239 233 248 250 242 251 257 240 221 218 219 207 221 225 236 244 245 242 251 267 271 273 272 270 270 272 276 282 286 287 287 286 287 288 290 289 289 289 288 288 286 285 285 284 284